Tracking 18844 objects as of 21-Nov-2017
HD Live streaming from Space Station
objects crossing your sky now

FENGYUN 1C DEB

Track FENGYUN 1C DEB now!
10-day predictions


NORAD ID: 33686
Int'l Code: 1999-025DFX
Perigee: 638.8 km
Apogee: 729.8 km
Inclination: 98.9 °
Period: 98.3 minutes
Semi major axis: 7055 km
RCS: 0.0123 m2 (small)
Launch date: May 10, 1999
Source: People's Republic of China (PRC)
Launch site: Taiyaun Space Center, China (TSC)

Note: This is SATELLITE DEBRIS
aabbcc
Your satellite tracking list
Your tracking list is empty




NASA's NSSDC Master Catalog

Two Line Element Set (TLE):
1 33686U 99025DFX 17325.42540812  .00003210  00000-0  59204-3 0  9994
2 33686  98.8831 189.9732 0064461  56.5809 304.1535 14.64967207535716
Source of the keplerian elements: AFSPC